,,PA_Meas_PMT16A,,PR_Meas_QMR101_102,,RH_Meas_QMH101,,SR_Meas_QMS101,,TA_Meas_QMH101,,GenWind,,GenWind,
time,status,PA,status,PR,status,RH,status,SR,status,TA,status,DirAvg,status,SpdAvg,
2016-09-30, 00:00:05,INVALID,917.812,VALID,0,VALID,74.5341,VALID,109.053,VALID,24.9274,VALID,307,VALID,0,
2016-09-30, 00:01:05,VALID,916.355,VALID,0,VALID,75.5404,VALID,108.73,VALID,24.8864,VALID,353,VALID,0,
2016-09-30, 00:02:05,VALID,916.144,VALID,0,VALID,76.44,VALID,107.978,VALID,24.8474,VALID,353,VALID,0,
2016-09-30, 00:03:05,VALID,916.049,VALID,0,VALID,76.2494,VALID,107.334,VALID,24.6912,VALID,353,VALID,0,
2016-09-30, 00:05:04,VALID,917.13,VALID,0,VALID,77.9342,VALID,103.358,VALID,24.6735,VALID,353,VALID,0,
2016-09-30, 00:06:04,INVALID,914.372,VALID,0,VALID,77.5378,VALID,100.78,VALID,24.7302,VALID,353,VALID,0,
2016-09-30, 00:07:04,VALID,915.615,VALID,0,VALID,76.8135,VALID,98.3087,VALID,24.7888,VALID,353,VALID,0,
2016-09-30, 15:10:04,VALID,918.009,VALID,0,INVALID,116.692,VALID,150.74,VALID,19.7808,VALID,332,VALID,0.854688,
2016-09-30, 15:11:04,VALID,917.97,VALID,0,INVALID,116.684,VALID,145.905,VALID,19.8213,VALID,17,VALID,0.650391,
2016-09-30, 15:13:04,VALID,917.993,VALID,0,INVALID,116.562,VALID,165.889,VALID,19.9188,VALID,303,VALID,0.453516,
2016-09-30, 15:14:04,VALID,917.971,VALID,0,INVALID,116.852,VALID,153.211,VALID,19.8798,VALID,345,VALID,1.52734,
2016-09-30, 15:15:04,VALID,917.968,VALID,0,INVALID,116.844,VALID,143.756,VALID,19.9188,VALID,328,VALID,0.673828,
2016-09-30, 15:16:04,VALID,917.973,VALID,0,INVALID,116.859,VALID,148.269,VALID,19.9383,VALID,26,VALID,1.34336,
2016-09-30, 15:17:04,VALID,917.98,VALID,0,INVALID,116.806,VALID,142.467,VALID,19.9563,VALID,53,VALID,0.871875,
2016-09-30, 15:18:04,VALID,918,VALID,0,INVALID,116.737,VALID,148.269,VALID,20.0538,VALID,47,VALID,0.748438,
2016-09-30, 15:19:04,VALID,918.016,VALID,0,INVALID,116.821,VALID,158.153,VALID,20.0944,VALID,37,VALID,0.820703,
2016-09-30, 15:20:04,VALID,918.034,VALID,0,INVALID,116.951,VALID,159.98,VALID,20.0733,VALID,14,VALID,1.26914,
2016-09-30, 15:21:04,VALID,918.06,VALID,0,INVALID,116.943,VALID,145.153,VALID,20.1318,VALID,325,VALID,0.100391,
2016-09-30, 15:22:04,VALID,918.067,VALID,0,INVALID,117.378,VALID,181.576,VALID,20.0148,VALID,289,VALID,1.81289,
2016-09-30, 15:23:04,VALID,918.072,VALID,0,INVALID,117.637,VALID,188.022,VALID,19.9563,VALID,258,VALID,1.01289,
2016-09-30, 15:24:04,VALID,918.076,VALID,0,INVALID,117.515,VALID,171.584,VALID,19.9953,VALID,339,VALID,0,
2016-09-30, 15:25:04,VALID,918.069,VALID,0,INVALID,117.446,VALID,171.691,VALID,20.0733,VALID,329,VALID,0.887891,
2016-09-30, 15:26:04,VALID,918.029,VALID,0,INVALID,117.812,VALID,182.22,VALID,19.9953,VALID,299,VALID,1.0793,
2016-09-30, 15:27:04,VALID,918.066,VALID,0,INVALID,117.965,VALID,202.849,VALID,19.9563,VALID,296,VALID,1.35703,
2016-09-30, 15:28:04,VALID,918.04,VALID,0,INVALID,117.972,VALID,231.536,VALID,19.9743,VALID,16,VALID,1.50117,
2016-09-30, 15:29:04,VALID,918.048,VALID,0,INVALID,117.995,VALID,200.27,VALID,20.0733,VALID,349,VALID,1.59687,
2016-09-30, 15:30:04,VALID,918.09,VALID,0,INVALID,118.262,VALID,183.939,VALID,20.0928,VALID,18,VALID,1.58125,
2016-09-30, 15:31:04,VALID,918.061,VALID,0,INVALID,118.285,VALID,176.526,VALID,20.1708,VALID,9,VALID,1.07891,
2016-09-30, 15:32:04,VALID,918.055,VALID,0,INVALID,118.354,VALID,209.725,VALID,20.2489,VALID,355,VALID,0.0578125,
2016-09-30, 15:33:04,VALID,918.103,VALID,0,INVALID,118.62,VALID,193.287,VALID,20.2684,VALID,215,VALID,0,
2016-09-30, 15:34:04,VALID,918.1,VALID,0,INVALID,118.575,VALID,204.675,VALID,20.3643,VALID,3,VALID,0,
2016-09-30, 15:35:04,VALID,918.101,VALID,0,INVALID,118.62,VALID,239.701,VALID,20.4829,VALID,38,VALID,0.913672,
2016-09-30, 15:36:04,VALID,918.111,VALID,0,INVALID,118.91,VALID,254.85,VALID,20.5219,VALID,27,VALID,0.559766,
2016-09-30, 15:37:04,VALID,918.115,VALID,0,INVALID,119.116,VALID,249.586,VALID,20.5204,VALID,16,VALID,1.2668,
2016-09-30, 15:38:04,VALID,918.128,VALID,0,INVALID,119.139,VALID,257.859,VALID,20.6585,VALID,353,VALID,0,
2016-09-30, 15:39:04,VALID,918.154,VALID,0,INVALID,119.474,VALID,262.264,VALID,20.6179,VALID,263,VALID,0.107813,
2016-09-30, 15:40:04,VALID,918.14,VALID,0,INVALID,119.634,VALID,235.618,VALID,20.6569,VALID,40,VALID,0,
2016-09-30, 15:41:04,VALID,918.156,VALID,0,INVALID,119.688,VALID,226.916,VALID,20.699,VALID,305,VALID,0,
2016-09-30, 15:42:04,VALID,918.174,VALID,0,INVALID,119.665,VALID,203.386,VALID,20.7755,VALID,17,VALID,0.707422,
2016-09-30, 15:43:04,VALID,918.227,VALID,0,INVALID,119.718,VALID,179.104,VALID,20.756,VALID,18,VALID,0.9875,
2016-09-30, 15:44:04,VALID,918.227,VALID,0,INVALID,119.642,VALID,179.427,VALID,20.8145,VALID,14,VALID,0.627344,
2016-09-30, 15:45:04,VALID,918.204,VALID,0,INVALID,119.566,VALID,208.328,VALID,20.795,VALID,7,VALID,1.13711,
2016-09-30, 15:46:04,VALID,918.227,VALID,0,INVALID,119.482,VALID,203.816,VALID,20.8535,VALID,31,VALID,0.889844,
2016-09-30, 15:47:04,VALID,918.256,VALID,0,INVALID,119.276,VALID,194.468,VALID,20.834,VALID,300,VALID,0,
2016-09-30, 15:48:04,VALID,918.261,VALID,0,INVALID,118.956,VALID,186.303,VALID,20.8535,VALID,264,VALID,0.585938,
2016-09-30, 15:49:04,VALID,918.245,VALID,0,INVALID,118.376,VALID,185.766,VALID,20.795,VALID,282,VALID,1.09648,
2016-09-30, 15:50:04,VALID,918.239,VALID,0,INVALID,118.277,VALID,186.088,VALID,20.7544,VALID,282,VALID,0.208594,
2016-09-30, 15:51:04,VALID,918.25,VALID,0,INVALID,118.514,VALID,197.584,VALID,20.7739,VALID,8,VALID,0.888281,
2016-09-30, 15:52:04,VALID,918.221,VALID,0,INVALID,118.453,VALID,189.204,VALID,20.7739,VALID,18,VALID,0.983984,
2016-09-30, 15:53:04,VALID,918.232,VALID,0,INVALID,118.597,VALID,175.237,VALID,20.7349,VALID,16,VALID,0.899609,
2016-09-30, 15:54:04,VALID,918.222,VALID,0,INVALID,118.971,VALID,166.534,VALID,20.8129,VALID,31,VALID,0.249219,
2016-09-30, 15:55:04,VALID,918.25,VALID,0,INVALID,118.758,VALID,176.418,VALID,20.8129,VALID,25,VALID,0,
2016-09-30, 15:56:04,VALID,918.263,VALID,0,INVALID,118.689,VALID,188.237,VALID,20.8925,VALID,24,VALID,0,
2016-09-30, 15:57:04,VALID,918.259,VALID,0,INVALID,118.796,VALID,196.725,VALID,20.969,VALID,24,VALID,0,
2016-09-30, 15:58:04,VALID,918.279,VALID,0,INVALID,118.986,VALID,226.271,VALID,21.086,VALID,18,VALID,0,
2016-09-30, 15:59:04,VALID,918.271,VALID,0,INVALID,118.758,VALID,220.039,VALID,21.1055,VALID,10,VALID,0,
2016-09-30, 16:00:04,VALID,918.274,VALID,0,INVALID,118.575,VALID,213.486,VALID,21.1445,VALID,41,VALID,0,
2016-09-30, 16:01:04,VALID,918.289,VALID,0,INVALID,118.613,VALID,218.106,VALID,21.164,VALID,24,VALID,1.15273,
2016-09-30, 16:02:04,VALID,918.274,VALID,0,INVALID,118.148,VALID,238.197,VALID,21.125,VALID,33,VALID,1.28047,
2016-09-30, 16:03:04,VALID,918.298,VALID,0,INVALID,117.904,VALID,254.958,VALID,21.086,VALID,53,VALID,1.57539,
2016-09-30, 16:04:04,VALID,918.305,VALID,0,INVALID,118.247,VALID,246.47,VALID,21.086,VALID,39,VALID,1.46211,
2016-09-30, 16:05:04,VALID,918.309,VALID,0,INVALID,118.521,VALID,233.255,VALID,21.1055,VALID,23,VALID,1.85977,
2016-09-30, 16:06:04,VALID,918.296,VALID,0,INVALID,118.384,VALID,226.593,VALID,21.0454,VALID,31,VALID,1.48906,
2016-09-30, 16:07:04,VALID,918.293,VALID,0,INVALID,118.163,VALID,229.279,VALID,21.0681,VALID,35,VALID,0.297266,
2016-09-30, 16:08:04,VALID,918.278,VALID,0,INVALID,117.828,VALID,248.189,VALID,21.047,VALID,25,VALID,0,
2016-09-30, 16:09:04,VALID,918.299,VALID,0,INVALID,117.881,VALID,283.322,VALID,21.047,VALID,18,VALID,0,
2016-09-30, 16:10:04,VALID,918.284,VALID,0,INVALID,118.132,VALID,318.133,VALID,21.047,VALID,12,VALID,0,
2016-09-30, 16:11:04,VALID,918.302,VALID,0,INVALID,118.582,VALID,330.811,VALID,21.1055,VALID,34,VALID,0,
2016-09-30, 16:12:04,VALID,918.321,VALID,0,INVALID,118.742,VALID,324.902,VALID,21.2031,VALID,8,VALID,1.2168,
2016-09-30, 16:13:04,VALID,918.331,VALID,0,INVALID,118.331,VALID,319.1,VALID,21.2632,VALID,359,VALID,1.00391,
2016-09-30, 16:14:04,VALID,918.333,VALID,0,INVALID,117.675,VALID,326.299,VALID,21.2616,VALID,36,VALID,0,
2016-09-30, 16:15:04,VALID,918.341,VALID,0,INVALID,117.683,VALID,309.001,VALID,21.3412,VALID,37,VALID,0,
2016-09-30, 16:16:05,VALID,918.361,VALID,0,INVALID,118.224,VALID,293.529,VALID,21.4372,VALID,56,VALID,0,
2016-09-30, 16:17:04,VALID,918.393,VALID,0,INVALID,118.643,VALID,274.62,VALID,21.6518,VALID,353,VALID,0,
2016-09-30, 16:18:04,VALID,918.389,VALID,0,INVALID,118.681,VALID,248.511,VALID,21.7867,VALID,17,VALID,0,
2016-09-30, 16:19:04,VALID,918.386,VALID,0,INVALID,117.347,VALID,218.213,VALID,21.8452,VALID,359,VALID,1.03164,
2016-09-30, 16:20:04,VALID,918.383,VALID,0,INVALID,117.294,VALID,208.006,VALID,21.9038,VALID,348,VALID,0,
2016-09-30, 16:21:04,VALID,918.422,VALID,0,INVALID,115.601,VALID,201.56,VALID,21.8452,VALID,312,VALID,0,
2016-09-30, 16:22:04,VALID,918.399,VALID,0,INVALID,115.899,VALID,194.361,VALID,21.7883,VALID,100,VALID,0,
2016-09-30, 16:23:04,VALID,918.405,VALID,0,INVALID,116.486,VALID,191.03,VALID,21.8062,VALID,354,VALID,0,
2016-09-30, 16:24:04,VALID,918.401,VALID,0,INVALID,115.449,VALID,181.898,VALID,21.6891,VALID,351,VALID,0.540625,
2016-09-30, 16:25:04,VALID,918.371,VALID,0,INVALID,115.48,VALID,168.575,VALID,21.6111,VALID,5,VALID,0,
2016-09-30, 16:26:04,VALID,918.399,VALID,0,INVALID,115.792,VALID,159.658,VALID,21.5136,VALID,275,VALID,0,
2016-09-30, 16:27:04,VALID,918.366,VALID,0,INVALID,116.76,VALID,173.732,VALID,21.5721,VALID,275,VALID,0,
2016-09-30, 16:28:04,VALID,918.347,VALID,0,INVALID,117.301,VALID,219.61,VALID,21.6908,VALID,278,VALID,0,
2016-09-30, 16:29:04,VALID,918.352,VALID,0,INVALID,117.012,VALID,275.587,VALID,21.8079,VALID,359,VALID,0,
2016-09-30, 16:30:04,VALID,918.391,VALID,0,INVALID,113.421,VALID,278.273,VALID,21.8274,VALID,32,VALID,0.00585938,
2016-09-30, 16:31:04,VALID,918.381,VALID,0,VALID,104,VALID,280.744,VALID,21.9054,VALID,322,VALID,0,
2016-09-30, 16:32:04,VALID,918.396,VALID,0,INVALID,111.973,VALID,288.802,VALID,22.003,VALID,13,VALID,0,
2016-09-30, 16:33:04,VALID,918.404,VALID,0,VALID,102.718,VALID,247.867,VALID,22.003,VALID,218,VALID,0,
2016-09-30, 16:34:04,VALID,918.445,VALID,0,INVALID,109.427,VALID,260.008,VALID,22.1005,VALID,349,VALID,0,
2016-09-30, 16:35:04,VALID,918.475,VALID,0,INVALID,110.944,VALID,308.786,VALID,22.1964,VALID,347,VALID,0,
2016-09-30, 16:36:04,VALID,918.517,VALID,0,VALID,104,VALID,264.95,VALID,22.3152,VALID,327,VALID,0,
2016-09-30, 16:37:04,VALID,918.51,VALID,0,VALID,99.821,VALID,216.816,VALID,22.4306,VALID,358,VALID,0,
2016-09-30, 16:38:04,VALID,918.496,VALID,0,VALID,93.8824,VALID,191.997,VALID,22.4501,VALID,21,VALID,0,
2016-09-30, 16:39:04,VALID,918.519,VALID,0,VALID,103.877,VALID,213.056,VALID,22.4713,VALID,37,VALID,0,
2016-09-30, 16:40:04,VALID,918.547,VALID,0,VALID,104,VALID,231.643,VALID,22.4891,VALID,17,VALID,0,
2016-09-30, 16:41:04,VALID,918.524,VALID,0,VALID,100.743,VALID,232.073,VALID,22.4696,VALID,10,VALID,0,
2016-09-30, 16:42:04,VALID,918.545,VALID,0,INVALID,109.556,VALID,202.527,VALID,22.4111,VALID,19,VALID,0,
2016-09-30, 16:43:04,VALID,918.586,VALID,0,INVALID,112.598,VALID,204.031,VALID,22.372,VALID,4,VALID,0,
2016-09-30, 16:44:04,VALID,918.54,VALID,0,VALID,104,VALID,199.626,VALID,22.333,VALID,10,VALID,0.0785156,
2016-09-30, 16:45:04,VALID,918.582,VALID,0,VALID,104,VALID,198.659,VALID,22.1752,VALID,10,VALID,1.07773,
2016-09-30, 16:46:04,VALID,918.573,VALID,0,INVALID,111.714,VALID,233.04,VALID,22.1201,VALID,12,VALID,1.22109,
2016-09-30, 16:47:04,VALID,918.549,VALID,0,INVALID,113.284,VALID,288.802,VALID,22.0208,VALID,5,VALID,1.16172,
2016-09-30, 16:48:04,VALID,918.587,VALID,0,INVALID,112.293,VALID,295.356,VALID,21.9428,VALID,296,VALID,1.47187,
2016-09-30, 16:49:04,VALID,918.563,VALID,0,INVALID,113.688,VALID,291.38,VALID,21.8842,VALID,279,VALID,0,
2016-09-30, 16:50:04,VALID,918.565,VALID,0,INVALID,114.984,VALID,265.487,VALID,21.9818,VALID,312,VALID,0,
2016-09-30, 16:51:04,VALID,918.574,VALID,0,INVALID,114.641,VALID,217.139,VALID,22.0794,VALID,310,VALID,0,
2016-09-30, 16:52:04,VALID,918.566,VALID,0,INVALID,111.569,VALID,177.493,VALID,22.1184,VALID,282,VALID,0,
2016-09-30, 16:53:04,VALID,918.57,VALID,0,INVALID,110.677,VALID,151.599,VALID,22.2159,VALID,332,VALID,0,
2016-09-30, 16:54:04,VALID,918.539,VALID,0,INVALID,113.147,VALID,134.624,VALID,22.294,VALID,1,VALID,0,
2016-09-30, 16:55:04,VALID,918.55,VALID,0,INVALID,113.543,VALID,132.797,VALID,22.372,VALID,1,VALID,0,
2016-09-30, 16:56:04,VALID,918.531,VALID,0,INVALID,110.311,VALID,142.789,VALID,22.3916,VALID,352,VALID,0,
2016-09-30, 16:57:04,VALID,918.513,VALID,0,INVALID,110.021,VALID,148.054,VALID,22.4306,VALID,34,VALID,0,
2016-09-30, 16:58:04,VALID,918.518,VALID,0,INVALID,109.312,VALID,138.921,VALID,22.4289,VALID,127,VALID,0,
2016-09-30, 16:59:04,VALID,918.512,VALID,0,INVALID,111.515,VALID,135.268,VALID,22.3916,VALID,31,VALID,1.17461,
2016-09-30, 17:00:04,VALID,918.541,VALID,0,INVALID,112.438,VALID,130.541,VALID,22.333,VALID,24,VALID,0.317187,
2016-09-30, 17:01:04,VALID,918.52,VALID,0,INVALID,113.284,VALID,130.434,VALID,22.3347,VALID,351,VALID,0.00234375,
2016-09-30, 17:02:04,INVALID,920.998,VALID,0,INVALID,109.335,VALID,121.731,VALID,22.1379,VALID,27,VALID,2.0375,
2016-09-30, 17:03:04,VALID,919.608,VALID,0,INVALID,113.299,VALID,107.871,VALID,22.0013,VALID,22,VALID,1.66016,
2016-09-30, 17:08:04,VALID,918.579,VALID,0,INVALID,114.359,VALID,97.3417,VALID,21.8257,VALID,46,VALID,0,
2016-09-30, 17:09:04,VALID,918.531,VALID,0,INVALID,113.688,VALID,113.136,VALID,21.7688,VALID,269,VALID,0,
2016-09-30, 17:10:04,VALID,918.575,VALID,0,INVALID,114.527,VALID,116.251,VALID,21.6908,VALID,340,VALID,0.937891,
2016-09-30, 17:11:04,VALID,918.546,VALID,0,INVALID,114.016,VALID,108.516,VALID,21.5916,VALID,4,VALID,1.71797,
2016-09-30, 17:12:04,VALID,918.561,VALID,0,INVALID,114.084,VALID,109.053,VALID,21.5136,VALID,5,VALID,1.95234,
2016-09-30, 17:13:04,VALID,918.58,VALID,0,INVALID,114.397,VALID,118.078,VALID,21.455,VALID,303,VALID,0.560156,
2016-09-30, 17:14:04,VALID,918.553,VALID,0,INVALID,114.748,VALID,137.095,VALID,21.4567,VALID,351,VALID,0.789844,
2016-09-30, 17:15:04,VALID,918.548,VALID,0,INVALID,115.441,VALID,195.865,VALID,21.4762,VALID,37,VALID,0.759766,
2016-09-30, 17:16:04,VALID,918.555,VALID,0,INVALID,115.67,VALID,224.982,VALID,21.5152,VALID,24,VALID,0,
2016-09-30, 17:17:04,VALID,918.554,VALID,0,INVALID,115.929,VALID,204.246,VALID,21.6128,VALID,19,VALID,0,
2016-09-30, 17:18:04,VALID,918.522,VALID,0,INVALID,115.358,VALID,214.13,VALID,21.6696,VALID,21,VALID,0,
2016-09-30, 17:19:04,VALID,918.54,VALID,0,INVALID,115.38,VALID,215.849,VALID,21.7883,VALID,21,VALID,0,
2016-09-30, 17:20:04,VALID,918.53,VALID,0,INVALID,115.312,VALID,243.247,VALID,21.8664,VALID,14,VALID,0,
2016-09-30, 17:21:04,VALID,918.536,VALID,0,INVALID,114.664,VALID,305.133,VALID,21.8859,VALID,29,VALID,0,
2016-09-30, 17:22:04,VALID,918.525,VALID,0,INVALID,114.748,VALID,344.027,VALID,21.9835,VALID,354,VALID,0,
2016-09-30, 17:23:04,VALID,918.528,VALID,0,INVALID,113.726,VALID,348.002,VALID,22.0598,VALID,346,VALID,0,
2016-09-30, 17:24:04,VALID,918.544,VALID,0,INVALID,112.026,VALID,323.72,VALID,22.1769,VALID,40,VALID,0,
2016-09-30, 17:25:04,VALID,918.502,VALID,0,INVALID,111.195,VALID,341.555,VALID,22.3135,VALID,20,VALID,0,
2016-09-30, 17:26:04,VALID,918.48,VALID,0,INVALID,109.068,VALID,365.837,VALID,22.4501,VALID,27,VALID,0,
2016-09-30, 17:27:04,VALID,918.497,VALID,0,VALID,104,VALID,449.641,VALID,22.6274,VALID,29,VALID,0,
2016-09-30, 17:28:04,VALID,918.455,VALID,0,VALID,104,VALID,488.535,VALID,22.8014,VALID,344,VALID,0,
2016-09-30, 17:29:04,VALID,918.435,VALID,0,VALID,103.084,VALID,533.66,VALID,23.016,VALID,10,VALID,1.10664,
2016-09-30, 17:30:04,VALID,918.415,VALID,0,VALID,87.8751,VALID,403.979,VALID,23.1917,VALID,321,VALID,0,
2016-09-30, 17:31:04,VALID,918.37,VALID,0,VALID,84.4217,VALID,390.978,VALID,23.2893,VALID,19,VALID,0,
2016-09-30, 17:32:04,VALID,918.364,VALID,0,VALID,83.8728,VALID,406.772,VALID,23.2698,VALID,249,VALID,0,
2016-09-30, 17:33:04,VALID,918.368,VALID,0,VALID,86.076,VALID,459.096,VALID,23.2893,VALID,307,VALID,0,
2016-09-30, 17:34:04,VALID,918.345,VALID,0,VALID,89.9639,VALID,529.148,VALID,23.3088,VALID,39,VALID,0,
2016-09-30, 17:35:04,VALID,918.357,VALID,0,VALID,87.2347,VALID,474.353,VALID,23.4064,VALID,101,VALID,0,
2016-09-30, 17:36:04,VALID,918.327,VALID,0,VALID,85.2755,VALID,378.837,VALID,23.5217,VALID,11,VALID,0,
2016-09-30, 17:37:04,VALID,918.373,VALID,0,VALID,85.5957,VALID,380.234,VALID,23.6602,VALID,25,VALID,0,
2016-09-30, 17:38:04,VALID,918.336,VALID,0,VALID,87.0747,VALID,369.383,VALID,23.7968,VALID,11,VALID,0.0125,
2016-09-30, 17:39:04,VALID,918.327,VALID,0,VALID,83.8957,VALID,366.267,VALID,23.7364,VALID,23,VALID,0.0457031,
2016-09-30, 17:40:04,VALID,918.296,VALID,0,VALID,85.9921,VALID,396.78,VALID,23.6974,VALID,40,VALID,0.680469,
2016-09-30, 17:41:04,VALID,918.353,VALID,0,VALID,84.0482,VALID,402.475,VALID,23.6779,VALID,340,VALID,0,
2016-09-30, 17:42:04,VALID,918.331,VALID,0,VALID,85.6338,VALID,417.194,VALID,23.5803,VALID,32,VALID,0.217969,
2016-09-30, 17:43:04,VALID,918.303,VALID,0,VALID,87.2119,VALID,438.575,VALID,23.5412,VALID,10,VALID,1.10586,
2016-09-30, 17:44:04,VALID,918.288,VALID,0,VALID,86.8841,VALID,419.558,VALID,23.5199,VALID,358,VALID,1.44844,
2016-09-30, 17:45:04,VALID,918.287,VALID,0,VALID,85.3136,VALID,411.07,VALID,23.5022,VALID,35,VALID,1.17148,
2016-09-30, 17:46:04,VALID,918.269,VALID,0,VALID,83.0647,VALID,460.815,VALID,23.5412,VALID,25,VALID,0.0335938,
2016-09-30, 17:47:04,VALID,918.228,VALID,0,VALID,83.789,VALID,442.765,VALID,23.5608,VALID,6,VALID,0.0101562,
2016-09-30, 17:48:04,VALID,918.174,VALID,0,VALID,85.2298,VALID,457.162,VALID,23.5998,VALID,15,VALID,2.45234,
2016-09-30, 17:49:04,VALID,918.22,VALID,0,VALID,86.7164,VALID,441.583,VALID,23.559,VALID,359,VALID,0.749219,
2016-09-30, 17:50:04,VALID,918.204,VALID,0,VALID,85.0468,VALID,433.525,VALID,23.5395,VALID,287,VALID,0,
2016-09-30, 17:51:04,VALID,918.226,VALID,0,VALID,81.6163,VALID,414.508,VALID,23.5395,VALID,341,VALID,0.692969,
2016-09-30, 17:52:04,VALID,918.205,VALID,0,VALID,85.3441,VALID,389.367,VALID,23.5199,VALID,29,VALID,0.0105469,
2016-09-30, 17:53:04,VALID,918.192,VALID,0,VALID,84.7953,VALID,374.647,VALID,23.6193,VALID,356,VALID,0,
2016-09-30, 17:54:04,VALID,918.18,VALID,0,VALID,84.6123,VALID,369.383,VALID,23.6779,VALID,29,VALID,0.00585938,
2016-09-30, 17:55:04,VALID,918.127,VALID,0,VALID,81.8221,VALID,403.334,VALID,23.6388,VALID,359,VALID,0.892969,
2016-09-30, 17:56:04,VALID,918.11,VALID,0,VALID,85.1459,VALID,456.303,VALID,23.5608,VALID,13,VALID,1.69922,
2016-09-30, 17:57:04,VALID,918.129,VALID,0,VALID,82.775,VALID,463.931,VALID,23.5022,VALID,14,VALID,0.657812,
2016-09-30, 17:58:04,VALID,918.096,VALID,0,VALID,86.3047,VALID,476.072,VALID,23.5608,VALID,17,VALID,0.487109,
2016-09-30, 17:59:04,VALID,918.127,VALID,0,VALID,85.1307,VALID,417.839,VALID,23.6584,VALID,351,VALID,0.0417969,
2016-09-30, 18:00:04,VALID,918.109,VALID,0,VALID,81.0217,VALID,385.284,VALID,23.637,VALID,9,VALID,0,
2016-09-30, 18:01:04,VALID,918.13,VALID,0,VALID,82.554,VALID,357.242,VALID,23.6584,VALID,14,VALID,0.666406,
2016-09-30, 18:02:04,VALID,918.136,VALID,0,VALID,83.8728,VALID,353.267,VALID,23.7364,VALID,24,VALID,1.02266,
2016-09-30, 18:03:04,VALID,918.085,VALID,0,VALID,82.3405,VALID,368.416,VALID,23.8145,VALID,35,VALID,0.157813,
2016-09-30, 18:04:04,VALID,918.132,VALID,0,VALID,82.9733,VALID,389.582,VALID,23.8127,VALID,357,VALID,0.239063,
2016-09-30, 18:05:04,VALID,918.122,VALID,0,VALID,81.7383,VALID,400.003,VALID,23.7932,VALID,21,VALID,0,
2016-09-30, 18:06:04,VALID,918.137,VALID,0,VALID,83.1638,VALID,408.491,VALID,23.7151,VALID,21,VALID,1.80938,
2016-09-30, 18:07:04,VALID,918.08,VALID,0,VALID,82.7827,VALID,413.434,VALID,23.6761,VALID,23,VALID,0.705078,
2016-09-30, 18:08:04,VALID,918.141,VALID,0,VALID,83.9719,VALID,407.739,VALID,23.6779,VALID,12,VALID,0,
2016-09-30, 18:09:04,VALID,918.107,VALID,0,VALID,83.4078,VALID,401.293,VALID,23.6779,VALID,20,VALID,0.460547,
2016-09-30, 18:10:04,VALID,918.107,VALID,0,VALID,84.5742,VALID,402.367,VALID,23.6974,VALID,360,VALID,0,
2016-09-30, 18:11:04,VALID,918.059,VALID,0,VALID,84.3531,VALID,409.888,VALID,23.7737,VALID,33,VALID,0.0507813,
2016-09-30, 18:12:04,VALID,918.072,VALID,0,VALID,83.4688,VALID,416.227,VALID,23.8713,VALID,358,VALID,0.0078125,
2016-09-30, 18:13:04,VALID,918.068,VALID,0,VALID,80.0611,VALID,410.748,VALID,23.8908,VALID,187,VALID,0.00429688,
2016-09-30, 18:14:04,VALID,918.056,VALID,0,VALID,81.8984,VALID,391.945,VALID,23.9689,VALID,7,VALID,0,
2016-09-30, 18:15:04,VALID,918.078,VALID,0,VALID,79.6799,VALID,354.878,VALID,23.8322,VALID,360,VALID,0,
2016-09-30, 18:16:04,VALID,918.023,VALID,0,VALID,79.5732,VALID,350.903,VALID,23.7737,VALID,223,VALID,0.0195313,
2016-09-30, 18:17:04,VALID,918.025,VALID,0,VALID,80.2746,VALID,348.217,VALID,23.6956,VALID,25,VALID,0.25,
2016-09-30, 18:18:04,VALID,918.02,VALID,0,VALID,86.0684,VALID,320.927,VALID,23.559,VALID,13,VALID,0,
2016-09-30, 18:19:04,VALID,918.037,VALID,0,VALID,84.6962,VALID,279.347,VALID,23.5395,VALID,341,VALID,0.571094,
2016-09-30, 18:20:04,VALID,917.813,VALID,0,VALID,83.3087,VALID,246.04,VALID,23.4809,VALID,29,VALID,0,
2016-09-30, 18:21:04,VALID,919.052,VALID,0,VALID,84.5589,VALID,233.685,VALID,23.4419,VALID,13,VALID,0.359375,
2016-09-30, 18:22:04,VALID,919.384,VALID,0,VALID,84.2311,VALID,231.213,VALID,23.3638,VALID,40,VALID,0.107031,
2016-09-30, 18:23:04,VALID,917.786,VALID,0,VALID,89.1254,VALID,224.552,VALID,23.323,VALID,360,VALID,0,
2016-09-30, 18:24:04,INVALID,919.933,VALID,0,VALID,84.437,VALID,202.527,VALID,23.1084,VALID,51,VALID,0.320703,
2016-09-30, 18:25:04,VALID,918.028,VALID,0,VALID,85.7939,VALID,193.394,VALID,23.0498,VALID,354,VALID,0,
2016-09-30, 18:26:04,VALID,916.213,VALID,0,VALID,85.7177,VALID,174.162,VALID,23.0108,VALID,28,VALID,0,
2016-09-30, 18:27:04,VALID,917.424,VALID,0,VALID,102.306,VALID,192.105,VALID,22.9913,VALID,16,VALID,0.00585938,
2016-09-30, 18:28:04,VALID,917.993,VALID,0,VALID,93.5164,VALID,262.586,VALID,23.0108,VALID,28,VALID,0.35,
2016-09-30, 18:29:04,VALID,917.837,VALID,0,VALID,104,VALID,282.033,VALID,23.0125,VALID,5,VALID,0.071875,
2016-09-30, 18:30:04,VALID,917.865,VALID,0,VALID,88.9881,VALID,274.727,VALID,22.915,VALID,3,VALID,0.103516,
2016-09-30, 18:31:04,VALID,917.87,VALID,0,VALID,104,VALID,270.752,VALID,22.9345,VALID,32,VALID,0,
2016-09-30, 18:32:04,VALID,917.81,VALID,0,VALID,99.9049,VALID,288.909,VALID,22.9718,VALID,354,VALID,0.126563,
2016-09-30, 18:33:04,VALID,917.829,VALID,0,VALID,86.8078,VALID,323.828,VALID,22.8369,VALID,247,VALID,0.2625,
2016-09-30, 18:34:04,VALID,917.79,VALID,0,VALID,104,VALID,356.275,VALID,22.8369,VALID,32,VALID,0,
2016-09-30, 18:35:04,VALID,917.781,VALID,0,VALID,104,VALID,384.102,VALID,22.954,INVALID,360,VALID,0,
2016-09-30, 18:36:04,VALID,917.757,VALID,0,VALID,94.2026,VALID,369.275,VALID,23.0516,VALID,11,VALID,0.178125,
2016-09-30, 18:37:04,VALID,917.805,VALID,0,VALID,90.246,VALID,372.391,VALID,23.1474,VALID,343,VALID,0,
2016-09-30, 18:38:04,VALID,917.76,VALID,0,VALID,88.889,VALID,383.028,VALID,23.2059,VALID,39,VALID,0.0105469,
2016-09-30, 18:39:04,VALID,917.734,VALID,0,VALID,87.0823,VALID,381.846,VALID,23.3443,VALID,33,VALID,0.00117188,
2016-09-30, 18:40:04,VALID,917.747,VALID,0,VALID,86.3885,VALID,376.474,VALID,23.4614,VALID,323,VALID,0,
2016-09-30, 18:41:04,VALID,917.752,VALID,0,VALID,83.8423,VALID,362.077,VALID,23.4614,VALID,314,VALID,0,
2016-09-30, 18:42:04,VALID,917.759,VALID,0,VALID,83.4002,VALID,357.672,VALID,23.559,VALID,314,VALID,0,
2016-09-30, 18:43:04,VALID,917.73,VALID,0,VALID,83.6289,VALID,353.052,VALID,23.559,VALID,251,VALID,0,
2016-09-30, 18:44:04,VALID,917.704,VALID,0,VALID,83.5526,VALID,355.953,VALID,23.5182,VALID,332,VALID,0.266016,
2016-09-30, 18:45:04,VALID,917.707,VALID,0,VALID,83.4993,VALID,357.027,VALID,23.559,VALID,14,VALID,0,
2016-09-30, 18:46:04,VALID,917.717,VALID,0,VALID,82.1042,VALID,367.771,VALID,23.5199,VALID,312,VALID,0.0015625,
2016-09-30, 18:47:04,VALID,917.659,VALID,0,VALID,84.4598,VALID,403.119,VALID,23.559,VALID,22,VALID,0,